GEFSNGP_con_cape1000_282.txt.gz
Probability
0 0 0 0 0 0 0 0 0 3 3 3 3 10 6 6 10 23 29 32 42 48 52 65 68 77 68 65 68 68 65 68 74 77 77 74 68 68 68 68 58 61 68 68
0 0 0 0 0 0 0 0 0 3 3 6 6 10 13 10 19 29 29 35 45 55 65 74 71 74 74 68 71 71 68 65 71 71 71 65 65 65 61 65 65 61 65 65
0 0 0 0 0 0 0 0 0 0 3 10 16 13 13 23 23 29 29 39 48 55 68 71 68 77 74 74 71 68 68 68 61 65 68 61 65 68 65 65 61 61 58 55
0 3 0 0 0 0 0 0 0 3 6 13 16 26 23 23 29 32 35 39 52 58 61 55 58 65 71 61 68 68 68 68 68 71 65 65 61 61 65 61 61 61 58 55
0 0 0 0 0 0 0 0 0 3 6 10 16 13 19 23 29 29 45 55 58 55 52 52 48 58 61 61 71 68 65 71 68 68 68 61 61 58 61 61 61 58 58 58
3 0 0 0 0 0 0 6 3 13 13 13 10 13 26 29 35 39 42 48 52 52 58 55 55 61 61 65 61 68 71 71 68 71 61 58 58 58 55 55 55 52 52 55
0 0 0 0 0 0 0 13 13 13 19 26 39 32 45 45 48 55 55 55 61 61 61 65 65 61 68 61 61 61 65 68 65 68 61 58 58 58 55 55 52 52 52 52
3 0 0 6 0 10 32 45 23 23 29 35 42 45 55 52 55 58 58 58 55 65 65 65 61 65 65 65 65 68 68 65 61 61 55 55 61 58 55 55 55 58 58 52
10 10 26 19 26 39 39 39 26 32 32 32 39 42 48 48 52 58 58 58 58 58 65 65 65 65 61 65 61 58 68 65 65 52 52 52 52 55 58 58 48 55 52 48
35 19 23 26 26 19 19 23 23 32 35 35 39 39 55 48 55 58 55 48 52 55 52 52 52 55 58 55 61 55 55 61 48 48 55 55 55 45 45 45 45 45 48 52
32 26 23 16 16 23 16 19 19 26 29 26 26 39 42 48 52 48 52 52 52 55 52 48 45 52 48 48 58 61 58 48 48 42 45 55 55 45 48 48 42 39 42 48
16 26 23 23 23 23 23 26 29 29 26 26 29 32 45 45 39 39 39 45 42 42 39 45 45 45 45 48 48 52 52 45 32 32 42 39 42 26 16 13 10 6 16 13
16 19 19 23 19 19 23 23 26 29 29 26 26 26 32 35 39 39 35 32 39 39 39 39 39 42 39 42 39 35 35 39 32 32 35 39 39 29 23 10 0 0 3 3
13 16 23 26 16 13 13 16 23 23 29 32 29 35 35 39 42 39 35 35 29 35 35 35 32 35 39 35 35 29 29 26 29 32 26 32 35 35 32 19 13 13 3 0
10 16 16 19 10 10 13 16 23 23 26 29 29 35 35 35 35 32 35 29 29 29 26 26 29 32 35 29 32 32 29 26 29 26 26 29 35 32 26 23 16 13 13 6
10 6 13 16 13 13 13 13 19 19 23 23 23 29 32 32 35 32 29 29 26 26 26 32 32 32 29 26 26 29 32 26 26 26 23 29 29 26 26 23 19 13 10 10
13 10 16 13 13 13 13 6 16 16 16 19 23 29 29 26 29 29 23 23 26 26 29 35 29 26 29 29 26 16 19 23 19 19 26 29 29 26 26 19 16 16 13 3
10 6 6 6 10 13 10 6 10 16 16 16 16 19 19 23 29 23 26 23 23 26 29 32 32 32 26 26 23 19 19 19 23 23 23 32 32 26 16 23 16 19 26 0
10 6 6 3 6 6 13 6 10 16 16 16 16 13 13 19 16 19 19 19 23 29 32 29 13 26 26 32 16 26 16 16 16 23 23 16 23 23 23 23 19 16 19 13
3 3 3 3 3 6 13 13 13 19 13 13 13 10 13 16 16 16 16 19 19 23 29 23 19 23 26 32 16 16 16 19 19 19 19 16 16 16 19 19 19 26 23 16
0 3 3 3 3 3 3 6 10 10 10 13 10 13 13 10 16 10 16 10 23 26 19 6 19 23 19 19 13 19 16 16 16 10 10 16 16 16 16 16 19 19 23 16
6 3 3 3 3 6 6 6 10 10 6 6 10 10 13 13 10 10 19 13 16 10 16 16 16 13 10 10 10 13 16 10 10 10 10 16 16 16 16 16 16 13 13 16
6 6 3 3 6 6 6 6 6 3 3 10 13 16 6 16 3 10 6 10 13 0 10 13 10 6 3 3 10 13 10 10 10 10 13 16 13 13 13 13 13 13 13 13
6 6 6 6 10 13 13 6 10 6 10 10 6 10 16 6 6 6 10 3 0 0 0 6 0 3 0 10 13 13 10 10 10 10 10 10 10 16 16 16 16 13 13 13
3 6 6 6 16 19 19 13 13 10 3 3 6 10 6 6 6 6 3 3 0 0 3 3 0 0 3 6 6 6 10 6 6 6 3 6 6 6 13 13 16 16 13 13
10 10 13 13 10 16 6 6 6 6 6 10 6 6 6 6 6 0 0 0 3 3 3 6 6 0 6 6 6 6 6 6 6 6 6 10 13 13 16 16 16 16 10 6
10 10 16 10 6 6 6 6 6 6 6 3 3 3 3 0 0 0 0 0 0 10 10 6 6 3 6 6 6 6 6 10 10 10 10 10 13 13 10 13 13 10 10 10

GEFSNGP_con_cape1000_288.txt.gz
Probability
0 0 0 0 0 0 0 0 0 0 0 0 0 3 3 3 6 13 13 19 23 19 19 29 26 29 29 39 45 39 35 39 39 45 39 39 29 32 35 39 39 32 29 32
0 0 0 0 0 0 0 0 0 0 0 0 0 3 3 6 6 16 19 19 23 19 16 19 23 23 29 35 35 35 35 35 35 42 35 35 35 35 35 32 35 32 29 29
0 0 0 0 0 0 0 0 0 0 0 0 3 3 6 6 10 16 19 19 23 19 26 23 19 23 26 32 32 35 39 39 35 35 35 35 39 39 39 35 35 35 32 26
0 0 0 0 0 0 3 3 3 3 0 0 6 6 6 10 10 23 23 23 26 29 23 23 23 26 26 26 35 35 35 35 35 39 35 39 35 39 39 39 35 35 35 29
0 0 0 0 0 0 3 0 3 3 6 6 13 13 13 16 19 26 26 26 26 23 23 29 32 29 26 32 42 39 29 35 35 32 32 32 32 35 39 39 39 39 35 35
0 0 0 0 0 0 0 3 0 6 6 10 10 13 23 26 32 26 26 26 23 26 23 26 26 26 29 35 35 35 32 29 32 29 29 29 32 35 39 39 42 42 39 35
0 0 0 0 3 6 3 6 0 0 3 6 3 10 16 16 26 29 26 23 19 29 26 19 19 19 23 32 35 32 29 26 23 23 23 23 23 26 32 32 32 32 32 35
0 0 0 0 3 10 10 6 13 13 10 10 6 16 16 19 29 29 23 19 16 23 19 19 23 23 26 23 26 29 29 23 23 19 16 19 23 23 23 26 26 29 29 29
0 0 0 6 13 10 6 3 10 10 13 19 19 19 26 26 29 29 23 23 23 16 13 19 19 19 23 23 19 26 32 26 19 19 19 16 19 19 23 26 26 26 26 29
10 13 10 13 13 10 3 3 3 6 10 16 16 35 29 29 29 26 26 16 16 19 19 23 19 16 19 23 23 23 26 19 19 16 16 13 13 16 16 23 26 26 26 29
10 10 10 10 10 10 6 13 13 16 19 19 29 26 26 23 29 29 19 23 16 16 19 19 23 23 23 23 23 23 19 16 16 19 13 16 13 13 16 13 13 16 16 16
6 6 6 6 10 10 13 23 26 23 23 26 35 32 32 26 19 19 16 23 19 13 13 16 16 16 16 19 23 19 16 16 16 16 16 13 10 10 10 10 10 6 10 13
6 6 6 6 6 10 13 19 16 23 19 23 29 26 32 29 19 19 19 19 23 13 16 16 13 13 13 16 19 16 13 13 13 19 19 16 13 10 10 10 3 0 0 0
3 3 6 6 3 3 0 10 13 16 16 19 16 23 23 26 23 23 19 13 16 16 13 10 19 19 19 19 16 13 10 16 13 13 16 13 13 13 13 10 10 6 3 0
3 3 3 3 0 0 0 3 10 13 16 16 16 23 23 23 19 19 16 16 23 19 16 16 16 16 16 13 10 10 13 10 10 13 16 16 16 13 16 13 13 10 6 3
3 3 0 0 0 0 0 0 3 13 13 13 10 6 16 16 19 19 19 19 23 23 23 16 16 16 13 10 10 10 10 10 10 6 10 13 13 13 16 13 13 13 10 6
0 0 0 0 0 0 0 3 3 0 6 6 6 6 6 10 13 19 16 19 19 19 19 19 16 10 13 10 10 10 10 10 3 6 6 10 10 13 6 10 10 10 13 6
3 0 0 0 0 0 3 3 0 3 3 3 0 0 3 3 6 13 13 19 16 16 19 19 19 13 10 6 10 10 10 10 6 6 6 6 6 6 3 6 6 10 10 6
3 0 0 0 0 0 0 0 0 3 3 3 0 0 3 3 6 6 10 13 16 19 13 16 16 13 13 10 10 10 10 10 10 6 10 10 6 6 6 3 3 6 6 6
3 0 3 3 3 0 0 3 3 3 3 3 0 0 0 3 6 6 3 6 10 10 10 13 10 10 10 13 10 10 10 10 10 10 10 10 10 6 6 3 6 6 6 6
3 0 3 3 0 0 0 0 0 0 0 0 0 0 3 3 6 6 3 3 3 3 0 0 3 6 10 10 3 10 6 6 6 3 6 10 10 10 6 6 3 6 6 6
0 0 0 0 0 0 0 0 0 0 0 0 0 3 3 3 6 6 3 3 0 0 0 0 0 0 6 6 3 10 6 6 3 3 3 3 10 6 6 6 6 6 6 6
0 0 0 0 0 0 0 0 0 0 3 0 0 3 3 3 3 0 0 0 0 0 0 0 0 0 0 0 3 3 3 6 6 6 6 3 6 6 6 6 6 10 10 6
0 0 0 0 0 0 0 0 0 0 0 0 0 0 3 0 0 0 0 0 0 0 0 0 0 0 0 0 0 3 3 3 3 10 10 10 10 10 6 3 6 6 6 0
3 0 0 0 0 0 0 0 0 0 0 0 0 0 0 0 0 0 0 0 0 0 0 0 0 0 0 0 0 0 0 3 3 3 3 3 6 3 3 3 3 3 3 0
3 3 0 0 0 0 0 0 0 0 0 0 0 0 0 0 0 0 0 0 0 0 0 0 0 0 0 0 0 0 0 0 3 0 3 3 3 3 3 3 3 0 0 0
3 3 3 0 0 0 0 0 0 0 0 0 0 0 0 0 0 0 0 0 0 0 0 0 0 0 0 0 0 0 3 3 3 3 3 6 6 3 3 0 0 0 0 0

GEFSNGP_con_cape1000_294.txt.gz
Probability
0 0 0 0 0 0 0 0 0 0 0 0 0 0 0 3 6 10 10 10 10 6 13 19 16 19 26 23 26 26 23 19 26 19 23 13 13 16 16 16 23 26 26 19
0 0 0 0 0 0 0 0 0 0 0 0 0 0 0 0 6 10 10 10 13 13 13 10 13 13 16 19 26 23 26 26 23 19 16 13 13 13 16 23 26 26 26 23
0 0 0 0 0 0 0 0 0 0 0 0 0 0 0 6 10 10 10 13 13 13 10 10 10 13 19 19 23 23 23 19 23 19 19 23 19 10 13 23 29 29 26 26
0 0 0 0 0 0 0 3 0 0 0 0 0 0 0 6 10 13 13 13 16 6 10 10 13 10 16 16 23 19 23 23 23 26 23 23 23 23 19 16 23 26 26 23
0 0 0 0 0 6 3 0 3 0 0 0 0 3 6 10 13 13 13 13 13 13 13 13 16 16 16 13 16 19 19 19 23 26 23 23 26 26 26 16 19 19 16 19
0 0 0 0 0 0 0 0 3 0 0 0 6 3 3 10 16 13 16 16 16 13 10 13 13 13 13 13 16 19 16 19 19 23 23 23 23 23 23 19 19 19 19 19
0 0 0 0 0 0 0 0 0 0 0 6 3 0 3 16 19 16 13 13 13 13 10 13 13 13 10 13 16 16 13 16 16 23 23 23 23 19 19 19 19 16 23 23
0 0 0 0 3 6 3 0 3 3 6 6 3 6 16 23 23 19 19 13 13 13 10 10 13 13 13 13 19 16 13 13 19 19 19 19 16 23 19 16 19 19 19 16
0 0 0 0 3 6 6 6 3 6 6 6 10 19 19 23 23 16 13 10 13 13 3 3 6 13 13 16 13 16 13 13 23 26 19 19 19 19 19 19 19 19 19 19
0 0 0 3 3 6 6 6 3 3 6 13 16 19 26 26 19 16 13 6 6 6 6 6 10 13 13 16 13 16 13 13 13 19 16 16 16 19 19 19 16 19 19 19
3 0 0 3 3 3 3 6 6 3 13 13 16 16 26 26 23 26 13 6 10 13 13 13 10 13 16 16 13 16 16 13 13 13 13 13 16 16 19 19 19 16 16 16
3 0 3 3 3 3 6 10 13 10 16 19 23 23 29 23 23 13 6 6 6 6 10 13 10 13 13 10 13 13 13 13 13 10 10 13 10 6 3 6 6 0 6 10
0 0 3 3 0 6 6 3 3 6 10 13 16 16 19 19 16 13 10 10 6 6 6 13 10 10 13 10 10 16 13 13 13 10 13 10 6 6 6 6 3 0 0 0
0 3 3 3 3 6 6 6 6 6 6 3 6 6 13 10 13 6 10 6 3 3 3 3 6 6 6 6 6 6 6 6 6 3 3 6 6 6 6 10 10 6 3 0
0 0 3 0 0 0 3 6 3 3 3 3 10 13 13 10 10 13 10 10 3 3 3 3 6 6 6 6 6 6 6 6 3 3 0 0 3 6 6 10 10 13 10 6
0 3 3 0 0 0 0 0 0 0 0 0 6 10 13 6 13 6 6 6 10 6 6 3 6 6 6 6 6 6 3 0 0 0 0 0 3 3 3 3 3 10 10 13
0 3 0 0 0 0 0 0 0 0 0 0 0 3 6 6 6 3 3 3 3 0 0 3 6 10 10 10 10 6 0 3 0 0 0 0 0 3 3 3 3 3 3 3
0 0 0 0 0 0 0 0 0 3 0 0 0 0 6 6 6 6 6 6 6 3 3 3 6 10 6 13 13 6 6 3 3 0 0 3 3 3 3 3 3 3 3 0
3 0 0 0 0 3 0 0 0 0 0 0 0 0 0 0 3 6 6 6 6 6 6 3 3 10 10 6 3 6 6 10 6 6 3 3 3 3 3 3 3 3 3 0
3 0 0 0 0 0 0 0 0 0 0 0 0 0 0 0 0 0 3 3 3 3 0 0 0 3 3 3 3 3 6 10 10 10 6 6 3 3 3 3 3 3 3 0
3 0 0 0 0 0 0 0 0 0 0 0 0 0 0 0 0 0 0 0 0 0 0 0 3 3 3 0 0 0 3 6 10 10 10 10 10 3 3 6 6 6 3 0
0 0 0 0 0 0 0 0 0 0 0 0 0 0 0 0 0 0 0 0 0 0 0 0 3 3 3 0 0 0 3 0 6 6 10 10 6 3 6 6 6 6 6 3
0 0 0 0 0 0 0 0 0 0 0 0 0 0 0 0 0 0 0 0 0 0 0 3 3 0 0 0 0 3 3 3 3 6 6 3 10 6 6 6 6 13 13 13
0 0 0 0 0 0 0 0 0 0 0 0 0 0 0 0 0 0 0 0 0 0 0 0 0 0 0 0 0 0 0 0 0 3 3 3 3 3 3 10 10 10 10 10
0 0 0 0 0 0 0 0 0 0 0 0 0 0 0 0 0 0 0 0 0 0 0 0 0 0 0 0 0 0 0 0 0 0 0 0 0 0 0 0 0 6 6 6
0 0 0 0 0 0 0 0 0 0 0 0 0 0 0 0 0 0 0 0 0 0 0 0 0 0 0 0 0 0 0 0 0 0 0 0 0 0 0 0 0 3 3 0
0 0 0 0 0 0 0 0 0 0 0 0 0 0 0 0 0 0 0 0 0 0 0 0 0 0 0 0 0 0 0 0 0 0 0 0 0 0 0 0 3 3 3 3

GEFSNGP_con_cape1000_300.txt.gz
Probability
0 0 0 0 0 0 0 0 0 0 0 3 6 6 13 13 13 23 32 39 42 58 58 65 65 61 61 71 65 65 68 71 71 71 71 71 65 65 58 55 52 58 52 48
0 0 0 0 0 0 0 0 0 0 0 0 3 13 23 19 16 19 29 39 42 58 58 61 61 61 61 61 71 74 68 68 65 65 68 68 68 58 52 55 58 52 45 42
0 0 0 0 0 0 0 0 0 0 0 0 3 16 23 32 35 32 32 39 45 52 61 65 61 61 58 58 68 71 71 68 65 65 58 58 52 55 52 52 48 45 42 39
0 0 0 0 0 0 0 0 0 0 0 0 10 16 23 26 26 32 29 45 55 52 58 55 61 58 61 52 52 61 61 61 58 55 58 55 55 52 48 48 42 42 39 32
0 0 0 0 0 0 0 0 0 3 3 3 6 10 10 10 19 29 39 45 48 48 52 52 52 55 48 45 45 58 55 55 55 55 58 58 55 55 48 39 42 39 39 39
0 0 0 0 3 3 3 0 6 6 10 13 10 6 6 23 23 32 42 55 45 42 45 45 45 42 48 48 55 58 58 55 55 52 52 55 58 48 45 42 39 39 39 42
0 0 0 6 3 3 0 3 10 10 13 19 23 16 16 23 39 39 55 45 45 39 42 42 35 42 48 52 45 45 45 48 52 52 52 52 52 48 48 39 39 39 39 39
0 0 3 3 6 3 10 10 10 13 16 26 26 23 29 39 48 48 58 52 52 45 42 42 42 39 45 42 45 42 45 48 48 45 39 39 45 45 39 35 39 42 42 39
3 3 10 13 16 13 16 19 19 16 23 26 26 29 35 48 52 48 48 45 48 48 45 45 42 45 42 42 45 45 42 42 45 42 42 39 39 39 35 35 32 32 32 32
10 3 10 16 16 16 19 23 19 16 16 26 29 32 42 45 48 55 48 48 45 48 48 48 48 48 48 45 45 45 45 42 45 45 42 42 39 39 29 29 29 32 32 35
10 10 13 10 13 19 19 19 19 16 19 26 26 32 42 45 45 48 48 45 48 45 52 52 52 48 48 48 45 45 45 45 39 42 42 42 35 35 32 32 26 29 32 29
10 10 13 10 6 13 13 16 13 23 23 26 32 32 35 42 45 48 52 45 45 45 42 39 42 48 45 48 42 42 45 42 39 39 39 39 32 29 13 13 13 10 13 16
10 13 10 6 6 10 10 13 19 19 26 35 35 32 39 35 39 45 45 45 45 39 39 39 39 45 45 42 39 39 42 42 42 32 35 39 39 32 23 6 3 0 0 3
10 10 6 6 10 10 13 16 26 26 26 29 26 26 32 32 32 42 42 42 39 39 39 39 39 42 42 42 39 39 39 26 29 32 32 32 32 32 29 23 16 13 0 0
10 10 10 10 10 10 16 16 16 19 23 19 26 32 32 29 32 35 35 35 32 32 35 35 35 35 42 35 35 32 29 29 26 26 26 26 35 32 26 23 23 19 19 10
10 10 10 10 10 13 10 16 16 19 19 19 16 23 19 19 26 32 32 35 32 29 29 32 35 35 29 29 29 26 23 13 19 26 29 26 26 23 19 23 16 13 19 16
13 13 10 10 13 6 10 16 13 19 19 23 23 19 19 19 26 26 26 26 29 29 29 29 23 23 23 26 26 16 19 23 6 16 19 19 16 13 16 13 13 10 13 13
13 10 3 6 10 6 6 10 6 10 13 16 23 23 19 16 26 26 19 26 26 26 23 16 19 19 19 19 26 19 16 16 19 23 16 16 10 10 13 10 10 13 10 10
10 10 6 6 6 10 6 6 3 3 6 13 16 19 16 16 26 23 23 26 23 23 23 16 6 13 13 13 13 23 13 13 6 10 10 6 6 6 10 10 10 10 10 13
10 10 10 6 6 3 3 3 6 3 3 6 6 10 16 16 16 23 16 13 13 13 16 16 10 10 13 13 10 10 13 13 10 6 6 3 6 6 10 16 16 16 10 13
6 6 6 3 3 3 3 3 3 6 10 6 6 13 6 6 13 23 23 16 13 10 13 3 13 16 6 10 0 10 10 10 10 10 6 6 6 13 10 19 16 13 13 13
6 6 3 3 3 3 3 3 0 0 6 6 10 6 3 6 6 13 10 13 6 3 10 10 10 3 3 0 3 6 10 10 10 10 6 6 6 6 6 13 13 16 10 3
6 6 3 3 3 3 3 3 3 3 6 6 6 6 10 10 0 3 10 13 13 0 0 6 3 0 0 3 3 3 6 6 10 6 6 6 6 6 6 3 3 6 3 3
6 6 3 3 3 3 3 3 3 3 3 6 6 10 10 10 10 6 6 0 0 0 0 0 0 0 0 3 3 3 6 6 6 3 3 0 0 3 3 3 3 3 3 3
13 6 3 3 3 6 3 3 3 3 3 3 3 10 6 10 6 6 10 6 0 0 0 0 0 0 0 0 0 0 3 3 0 0 0 0 0 0 0 0 0 0 0 0
6 3 6 6 3 3 0 0 0 0 3 0 0 0 6 6 10 10 13 10 0 0 0 0 0 0 0 0 0 3 3 0 0 0 0 0 0 0 0 0 0 0 0 0
3 3 0 3 0 0 0 0 0 0 0 3 0 3 3 3 6 6 6 3 3 0 0 0 0 0 0 0 3 3 3 0 0 0 0 0 0 0 0 0 0 0 0 0

GEFSNGP_con_cape1000_306.txt.gz
Probability
0 0 0 0 0 0 0 0 0 0 3 3 6 6 6 16 19 16 26 32 39 48 55 68 71 74 71 65 65 65 74 74 74 74 71 74 77 71 68 65 65 68 61 61
0 0 0 0 0 0 0 0 0 3 3 3 6 10 19 16 26 26 32 32 39 58 58 61 71 71 65 68 68 68 68 74 74 68 71 71 65 68 68 65 65 65 61 58
0 0 0 0 0 0 0 0 0 3 3 3 6 10 16 26 29 26 29 39 42 52 58 65 71 71 74 71 68 68 68 68 68 71 68 65 58 61 61 58 61 61 52 58
0 0 0 0 0 0 0 0 0 0 0 0 10 16 23 26 26 29 32 39 48 48 58 61 61 68 74 58 65 65 68 68 68 65 65 68 68 65 65 61 58 55 55 52
0 0 0 0 0 0 0 3 3 0 3 3 6 13 16 23 23 23 35 45 52 48 45 61 61 61 61 65 58 58 58 65 65 65 65 65 65 65 65 61 58 55 52 48
0 0 3 6 0 0 0 3 3 6 10 10 13 13 16 23 23 26 26 39 48 52 52 55 58 65 65 68 61 58 58 58 58 61 58 61 61 61 58 58 55 52 52 52
0 0 6 3 0 0 0 6 10 10 10 10 19 19 26 26 32 42 48 45 55 55 58 65 61 65 65 58 61 65 58 55 58 58 55 52 61 61 61 58 55 52 48 52
0 0 3 6 10 16 26 32 16 13 13 19 19 23 29 42 42 45 52 48 48 61 65 68 61 61 61 58 65 61 55 58 58 58 52 52 55 61 61 58 55 55 55 48
10 3 13 13 16 19 19 23 16 10 10 16 19 26 23 32 39 39 42 48 52 55 61 61 61 55 58 65 68 58 58 58 61 58 58 52 58 48 52 52 48 42 42 39
19 6 6 13 13 16 10 13 13 13 13 19 16 23 26 32 39 45 55 55 52 52 58 58 61 58 61 65 58 58 58 58 58 58 55 55 52 42 42 45 39 39 42 39
10 10 6 10 10 16 13 10 10 13 16 16 19 23 32 42 48 48 52 55 55 52 55 55 58 65 58 61 58 55 55 55 55 55 48 48 42 39 39 42 35 39 39 39
10 13 13 13 13 16 10 10 10 13 16 23 19 23 32 35 52 48 48 48 48 52 55 58 55 55 55 52 55 52 48 48 48 45 42 39 39 39 26 23 23 10 10 19
10 10 10 10 10 13 10 10 6 10 10 13 19 23 26 32 39 35 39 45 45 48 52 52 45 48 48 52 55 55 48 48 45 45 42 42 39 39 39 16 3 0 3 3
13 10 13 10 6 10 10 6 10 10 13 16 16 16 26 29 32 32 39 39 39 42 45 42 45 45 45 48 52 55 45 39 42 42 42 42 39 39 39 39 35 19 3 0
6 6 6 6 6 6 10 6 13 13 19 23 23 19 26 26 29 39 39 39 39 39 35 32 32 39 45 42 39 39 39 32 32 35 35 35 35 32 29 29 29 26 19 6
0 3 10 6 6 6 10 13 16 13 23 23 23 23 23 26 29 32 32 35 39 35 39 39 39 39 39 35 35 35 32 19 23 29 29 29 29 26 26 29 29 26 23 10
0 6 6 6 10 10 13 13 16 16 19 23 19 19 16 23 32 35 35 35 35 39 39 39 39 32 32 35 35 29 29 19 13 19 23 23 16 19 23 19 19 19 19 6
6 6 10 10 6 6 6 6 10 16 26 23 26 23 19 23 29 32 32 35 35 35 35 29 29 29 29 29 29 23 23 19 13 16 16 19 19 19 16 16 13 16 13 6
6 6 6 10 6 6 6 6 16 16 26 29 16 19 26 23 29 29 32 32 32 32 29 26 19 26 29 26 16 29 19 16 19 16 13 10 6 6 6 10 10 10 10 3
3 3 3 0 3 3 3 6 13 16 19 19 19 23 26 26 26 29 26 35 29 29 29 26 26 26 26 26 13 19 16 13 13 13 10 10 10 13 10 10 10 10 10 6
3 3 6 3 6 6 3 6 10 6 16 19 26 26 23 29 26 26 29 23 32 32 29 16 19 23 19 16 10 10 10 10 10 10 6 6 6 13 13 10 6 6 6 6
3 3 10 6 6 6 10 13 13 6 13 19 23 23 23 26 23 29 29 29 19 10 16 19 19 13 13 6 6 6 6 6 10 10 6 6 6 10 13 6 3 3 10 13
3 10 10 6 6 10 13 10 6 16 13 16 19 19 19 23 16 16 13 13 13 3 6 10 6 3 3 6 6 6 3 6 6 10 6 6 6 6 6 6 3 3 6 10
6 6 10 16 16 13 16 10 13 13 13 10 10 13 23 10 6 10 10 3 6 0 10 3 0 0 0 6 6 6 6 3 3 3 3 0 6 6 6 6 10 10 10 10
10 10 10 6 13 6 16 16 16 16 6 6 6 3 6 3 6 6 6 6 0 0 3 3 0 0 0 6 6 6 6 3 3 3 3 3 3 6 6 6 6 3 3 3
13 6 6 10 10 10 6 6 3 3 3 3 0 0 3 3 6 6 10 3 6 0 0 6 3 0 0 6 6 6 6 0 0 0 0 0 3 3 3 3 3 3 3 3
10 13 16 6 6 3 3 0 0 0 0 0 3 0 0 0 3 6 0 3 6 3 6 6 6 6 6 6 3 3 3 3 3 6 3 0 3 3 3 3 3 3 3 3

GEFSNGP_con_cape1000_312.txt.gz
Probability
0 0 0 0 0 0 0 0 0 0 0 0 0 3 3 3 0 6 10 3 6 13 16 19 23 26 26 35 42 45 45 45 45 42 39 39 39 35 39 35 35 32 29 23
0 0 0 0 0 0 0 0 0 0 0 0 3 3 3 3 3 6 10 10 10 13 23 19 19 23 26 29 29 39 42 35 39 48 39 42 42 39 35 39 35 32 23 23
0 0 0 0 0 0 0 0 0 0 0 3 3 3 3 3 6 6 6 13 13 16 16 16 23 29 19 26 29 35 39 39 39 42 42 35 39 39 35 32 26 26 26 23
0 0 0 0 0 0 0 0 0 0 3 6 6 0 3 3 6 6 10 13 10 13 23 26 32 29 19 29 35 35 35 35 39 42 42 39 42 42 32 29 26 23 23 23
0 0 0 0 0 0 3 0 0 3 6 3 6 10 10 6 10 10 13 16 16 16 23 23 32 35 26 29 35 32 32 35 42 39 39 35 39 39 29 29 26 23 23 23
0 0 0 0 0 0 3 3 3 3 3 3 3 13 16 16 16 16 16 13 23 26 26 19 29 29 26 26 29 32 35 39 39 39 39 39 39 39 29 26 26 26 23 23
0 0 0 0 0 0 3 3 0 3 10 10 10 16 16 23 19 19 19 23 19 19 19 19 23 35 32 29 29 29 26 26 29 32 29 32 32 32 29 26 26 26 26 23
0 0 0 0 6 3 3 3 6 13 13 16 19 26 23 29 29 29 29 29 29 26 26 19 23 23 29 26 29 23 29 26 29 32 32 35 29 32 29 26 23 23 23 23
0 3 6 3 6 0 0 3 0 3 6 13 23 32 35 35 35 29 29 32 29 32 29 26 26 19 26 26 23 32 35 32 32 26 29 32 29 32 26 26 23 23 23 23
3 10 10 6 0 0 0 0 3 3 10 13 19 23 32 35 35 39 35 35 29 29 35 35 32 26 29 29 29 32 32 32 29 26 26 26 29 32 26 26 29 29 23 26
3 3 6 3 0 0 0 0 0 10 10 16 13 13 26 29 29 35 39 39 39 35 32 32 32 29 29 29 29 29 32 29 29 23 23 26 29 29 23 26 26 26 29 26
3 0 3 0 0 0 0 0 3 6 13 10 10 13 16 19 23 26 32 32 35 35 35 35 26 26 29 26 29 26 26 29 26 23 23 23 19 16 10 16 19 10 10 13
0 0 0 0 0 0 0 0 0 0 10 10 10 10 16 16 23 23 23 32 35 35 29 26 19 23 26 26 26 26 29 19 16 19 19 19 13 16 16 10 3 6 3 6
0 0 0 3 3 0 0 0 3 3 10 10 10 10 16 16 23 23 23 29 29 32 32 29 26 23 26 23 26 23 26 23 19 19 19 19 19 16 13 13 16 13 6 0
0 0 0 0 0 0 0 0 0 3 10 13 13 13 19 19 19 23 19 23 23 29 29 26 26 23 19 19 23 19 19 16 16 16 16 19 19 13 16 16 16 13 6 3
0 0 3 3 3 0 0 0 0 3 3 6 13 13 13 13 13 19 19 19 23 19 23 29 23 23 26 26 23 23 23 16 19 13 13 13 13 13 10 13 10 3 6 3
3 3 3 6 3 3 6 6 6 6 6 10 13 13 13 13 13 13 16 19 19 19 19 23 26 23 23 23 26 23 23 19 13 13 13 13 10 10 6 6 6 6 6 3
0 0 3 3 3 6 6 6 6 6 6 10 10 13 13 13 13 13 16 16 19 19 19 23 19 23 19 19 19 23 23 16 16 13 10 10 10 10 10 6 6 3 3 0
0 0 0 0 0 3 6 6 6 6 10 6 6 6 10 10 10 10 10 10 13 13 16 16 13 13 13 16 19 19 23 13 10 6 6 6 6 10 6 6 6 3 3 0
0 0 0 0 0 3 3 3 3 3 3 6 6 6 6 10 10 10 10 6 10 13 10 10 10 10 13 13 13 10 6 6 10 10 6 6 6 6 6 6 6 3 3 0
0 3 3 0 3 3 3 3 3 3 3 3 3 3 3 6 3 6 6 6 6 3 3 3 3 6 6 10 10 6 6 6 6 6 6 10 6 6 6 6 6 0 0 0
0 0 3 6 6 3 3 3 3 3 3 3 3 0 0 0 0 0 0 3 3 3 3 3 3 3 3 3 0 0 0 0 3 6 6 6 10 6 6 6 6 6 3 0
0 6 3 3 3 3 3 3 3 3 3 0 0 0 0 0 0 0 3 3 3 3 3 3 3 3 0 0 3 0 0 0 0 0 3 3 6 6 6 3 0 3 3 0
6 6 6 6 6 6 6 0 3 0 0 0 0 0 0 0 0 0 0 3 3 3 3 0 3 0 0 0 0 0 0 0 0 0 0 3 3 3 3 0 0 0 0 0
3 6 6 6 3 3 0 0 0 0 0 0 0 0 0 0 0 0 0 0 3 0 0 0 0 0 0 0 0 0 0 0 0 0 0 0 3 3 3 3 0 0 0 0
0 0 3 3 0 0 0 0 0 0 0 0 0 0 0 0 0 0 0 0 0 0 0 0 0 0 0 0 0 0 0 0 0 0 0 0 3 3 3 3 0 0 0 0
0 0 0 0 0 0 0 0 0 0 0 0 0 0 0 0 0 0 0 0 3 0 0 0 0 0 0 0 0 0 0 0 0 0 0 0 0 0 0 0 0 0 0 0

GEFSNGP_con_cape1000_318.txt.gz
Probability
0 0 0 0 0 0 0 0 0 0 0 0 0 3 3 0 0 3 3 3 0 0 3 3 6 6 6 3 10 10 16 16 19 13 6 10 10 16 16 13 16 16 16 16
0 0 0 0 0 0 0 0 0 0 0 0 3 0 0 0 0 3 3 6 0 0 0 0 6 6 6 6 13 19 23 19 19 16 13 10 10 10 13 13 13 13 19 19
0 0 0 0 0 0 0 0 0 0 0 3 6 3 0 0 0 0 0 3 3 3 3 3 3 6 10 10 13 23 23 19 19 16 16 13 19 16 13 16 16 16 13 16
0 0 0 0 0 0 0 0 0 0 3 6 6 3 0 0 0 0 3 3 6 0 0 0 0 6 13 10 16 23 26 23 23 19 23 26 23 23 23 23 19 13 13 13
0 0 0 0 0 0 0 0 0 0 3 3 0 0 0 3 3 3 3 3 3 3 3 3 3 6 10 13 19 26 26 26 23 26 26 26 23 23 19 19 16 16 16 16
0 0 0 0 0 0 0 0 0 6 3 0 0 0 3 6 10 10 10 6 6 6 6 3 3 3 10 6 16 26 26 26 23 26 29 26 19 23 23 19 16 16 16 16
0 0 0 0 0 0 0 0 0 3 0 0 0 3 3 10 19 23 23 10 13 10 10 10 10 13 13 6 10 16 19 26 23 23 23 23 23 23 26 23 23 16 16 19
0 0 0 0 0 0 0 0 0 0 3 3 6 13 13 16 19 26 29 19 16 16 10 6 6 10 10 13 10 16 13 19 23 26 26 26 23 23 23 23 19 16 16 19
0 0 0 0 0 0 0 0 0 0 0 3 10 19 19 23 23 23 23 23 23 19 16 13 16 13 16 19 16 13 16 16 19 16 19 29 19 23 16 13 16 16 13 19
0 0 0 0 0 0 0 0 0 0 0 0 0 13 16 19 23 26 23 16 19 16 16 19 19 19 19 13 13 13 16 13 13 16 16 16 19 16 16 16 19 19 26 19
0 0 0 0 0 0 0 0 0 0 0 0 3 6 10 10 13 23 19 16 23 23 23 19 13 13 16 16 16 23 23 19 19 16 16 16 16 16 19 23 23 23 23 23
0 0 0 0 0 0 0 0 0 0 0 0 3 6 13 10 10 13 13 13 16 23 23 16 13 13 13 10 13 26 23 19 19 16 16 16 16 13 10 10 10 3 13 13
0 0 0 0 0 0 0 0 0 0 0 0 0 6 6 10 6 13 13 13 10 10 16 16 13 13 13 13 13 16 19 19 19 16 13 16 16 16 13 10 6 0 3 3
0 0 0 0 0 0 0 0 0 0 0 0 3 6 6 6 6 6 16 16 6 6 13 16 10 10 13 10 13 10 10 10 13 10 13 13 13 16 13 13 13 10 3 0
0 0 0 0 0 0 0 0 0 0 0 3 6 6 6 6 6 10 6 10 6 6 13 13 13 13 10 10 6 6 10 10 13 10 10 6 10 10 10 10 10 10 6 6
0 0 3 3 3 3 0 3 0 0 0 3 6 6 6 10 10 10 6 6 6 10 16 16 13 13 13 10 6 6 10 10 13 10 10 6 3 3 3 6 10 6 6 6
0 3 3 3 3 3 3 3 3 3 3 3 6 10 10 13 6 10 10 6 3 10 13 13 16 16 13 16 16 16 13 10 3 6 6 6 6 6 6 6 6 6 6 6
0 0 0 0 3 3 3 3 3 6 6 6 6 6 6 10 10 10 10 10 10 10 16 16 19 16 16 16 16 16 16 16 10 3 6 10 10 10 6 6 6 6 6 6
0 0 0 0 0 0 0 0 6 6 3 3 3 3 6 10 10 10 10 10 13 13 13 16 13 16 16 16 19 19 19 16 13 10 10 10 10 10 6 6 6 6 6 6
0 0 0 0 0 0 0 3 3 3 0 0 3 3 3 3 3 3 6 6 10 10 10 13 10 13 16 16 13 16 16 13 10 10 6 6 6 3 6 6 6 6 6 6
0 0 0 0 0 0 0 3 3 3 0 0 0 0 0 0 0 3 3 6 6 0 0 3 6 13 10 10 6 13 13 13 10 10 6 6 3 3 3 6 6 6 6 6
0 0 0 0 0 0 0 0 3 0 0 0 0 0 0 0 0 0 0 0 0 0 0 0 0 3 0 3 6 10 10 10 6 3 3 3 3 3 3 3 6 6 6 6
0 0 0 0 0 0 0 0 0 0 0 0 0 0 0 0 0 0 0 0 0 0 0 0 0 0 0 0 3 3 3 0 0 0 0 3 3 3 0 0 0 6 6 6
0 0 0 0 0 0 0 0 0 0 0 0 0 0 0 0 0 0 0 0 0 0 0 0 0 0 0 0 0 0 0 0 0 0 0 0 0 0 0 0 0 0 3 3
0 0 0 0 0 0 0 0 0 0 0 0 0 0 0 0 0 0 0 0 0 0 0 0 0 0 0 0 0 0 0 0 0 0 0 0 0 0 0 0 0 0 0 3
0 0 0 0 0 0 0 0 0 0 0 0 0 0 0 0 0 0 0 0 0 0 0 0 0 0 0 0 0 0 0 0 0 0 0 0 0 0 0 0 0 0 0 3
0 0 0 0 0 0 0 0 0 0 0 0 0 0 0 0 0 0 0 0 0 0 0 0 0 0 0 0 0 0 0 0 0 0 0 0 0 0 0 0 0 0 0 0

GEFSNGP_con_cape1000_324.txt.gz
Probability
0 0 0 0 0 0 0 0 0 0 0 10 13 16 26 29 35 35 39 48 48 48 48 48 52 52 52 52 48 55 55 55 55 58 55 55 55 58 58 52 48 55 58 55
0 0 0 0 0 0 0 0 0 0 10 13 13 16 29 32 29 35 42 35 39 42 45 52 55 55 55 55 55 58 55 55 48 55 52 52 52 52 55 52 52 48 48 45
0 0 0 0 0 0 0 3 3 3 10 13 16 19 29 26 35 39 32 35 32 35 48 55 48 45 52 55 58 55 58 58 55 52 52 52 45 52 52 48 52 48 42 42
0 0 0 0 0 0 0 3 3 6 13 13 19 19 23 26 32 35 32 29 39 45 39 48 45 42 52 48 45 52 58 58 58 52 52 55 52 52 52 52 48 52 45 39
0 0 0 0 3 3 10 10 10 10 13 10 19 19 23 29 35 39 32 45 52 45 45 35 39 39 42 42 42 48 52 61 58 55 55 52 58 58 55 48 45 45 45 42
0 0 0 0 3 6 13 13 10 10 10 19 23 23 26 29 32 35 32 52 48 52 48 45 45 42 45 39 39 42 48 55 55 58 55 55 58 58 55 55 52 45 45 45
0 0 0 0 3 3 6 13 19 16 19 26 29 32 29 35 35 42 42 52 48 48 52 48 48 45 42 42 42 42 45 42 48 45 45 45 55 55 52 52 45 42 35 39
0 0 0 3 6 13 16 23 23 19 23 26 29 32 32 29 32 35 45 45 48 52 45 45 48 45 48 48 39 45 42 39 42 42 39 35 48 52 45 45 45 39 39 35
3 3 10 6 10 10 10 23 19 26 23 23 16 19 23 26 29 29 39 42 45 42 48 45 45 45 48 52 48 48 42 42 42 42 42 39 42 45 45 48 42 39 39 35
6 6 10 10 10 10 13 13 16 16 16 16 13 16 16 16 23 23 32 39 42 42 42 45 45 45 52 52 45 45 42 42 42 42 42 45 45 39 39 39 39 39 39 39
10 10 10 6 6 3 3 6 10 13 6 10 10 10 10 10 10 16 23 32 39 42 48 45 45 45 42 45 45 42 42 42 39 42 35 45 42 35 32 32 32 39 39 35
10 6 3 3 0 0 3 3 3 3 3 6 6 10 10 10 10 13 19 19 32 32 32 32 45 42 39 42 42 42 42 42 35 32 35 32 39 35 13 16 10 6 13 16
3 3 0 0 3 0 0 0 0 6 6 6 6 10 10 10 10 10 16 16 19 26 29 29 32 35 39 35 42 45 42 42 39 32 29 32 39 39 39 13 0 0 0 0
6 3 3 3 3 0 0 0 0 3 6 10 10 10 10 13 13 16 16 19 19 23 26 26 29 35 32 35 42 39 39 32 35 39 32 35 39 39 35 39 29 19 0 0
3 3 3 3 3 0 0 0 0 3 6 10 10 10 10 16 16 16 16 19 19 19 19 19 23 23 26 32 29 32 32 32 32 32 29 32 35 35 32 42 29 19 13 10
3 3 3 3 3 6 3 3 3 3 3 13 13 13 16 16 16 16 13 19 19 13 16 19 23 23 23 26 26 29 32 19 16 32 29 32 35 32 29 32 26 26 13 13
6 3 3 3 6 6 6 10 10 13 6 10 10 16 16 19 16 16 13 13 16 19 19 19 16 23 23 26 26 23 23 23 10 19 29 26 32 29 23 19 19 19 13 6
6 3 3 3 6 10 10 10 13 13 13 16 16 16 19 19 19 13 13 13 13 16 16 16 16 19 16 16 23 23 23 19 23 26 29 23 19 19 19 19 19 19 13 6
0 0 0 0 3 3 10 10 10 10 10 10 6 13 16 16 16 19 13 13 13 16 19 16 13 16 13 13 13 19 19 19 26 26 19 16 16 16 19 19 19 23 16 10
0 0 0 0 0 3 3 6 6 6 10 6 6 10 13 16 13 16 16 10 10 10 13 13 13 13 13 13 13 13 16 16 19 23 16 16 16 16 16 16 19 19 13 13
0 0 0 0 0 0 0 0 3 3 10 10 10 13 13 13 10 16 16 13 6 6 10 10 13 13 13 13 10 13 16 16 16 16 19 13 13 16 16 16 16 16 13 10
6 6 0 0 0 0 0 3 0 0 6 10 6 10 13 13 13 10 3 10 6 0 3 6 10 10 10 10 13 13 13 16 16 16 19 16 13 16 16 16 16 13 13 10
6 10 3 0 0 3 3 3 6 6 6 6 10 10 10 10 3 0 0 3 6 0 0 6 3 0 0 10 13 13 13 13 13 16 16 16 16 16 16 13 13 13 13 10
6 10 6 6 3 3 3 3 3 3 3 6 10 10 13 6 3 0 0 0 0 0 0 0 0 0 0 10 13 13 13 16 16 13 16 16 16 16 13 10 10 10 3 3
10 10 10 6 3 0 0 0 0 0 0 0 3 3 3 3 3 3 0 3 0 0 0 0 0 0 0 6 10 10 10 13 13 10 13 13 13 13 6 6 3 3 0 0
10 6 6 6 3 3 0 3 3 3 3 3 3 3 6 3 3 3 6 6 3 0 0 3 3 0 0 3 3 3 6 10 10 10 13 13 10 6 3 0 0 0 0 0
6 6 6 6 0 3 3 3 3 3 3 3 3 0 0 3 3 3 3 0 0 0 0 0 0 0 0 3 3 3 3 10 13 13 13 6 0 0 0 0 0 0 0 0

GEFSNGP_con_cape1000_330.txt.gz
Probability
0 0 0 0 0 0 0 0 0 3 0 3 6 16 19 19 26 35 42 39 48 55 65 68 68 68 58 58 58 58 55 55 52 58 61 65 68 68 71 65 61 65 65 61
0 0 0 0 0 0 0 0 0 0 3 3 13 16 19 26 39 48 52 48 52 55 65 65 61 61 61 55 58 61 58 58 55 55 61 61 65 68 68 68 68 68 61 61
0 0 0 0 0 0 0 0 0 0 3 6 16 16 29 35 39 45 48 55 55 55 45 52 52 55 61 55 55 58 58 65 58 61 61 65 58 61 65 58 65 65 61 65
0 0 0 0 0 0 0 0 3 6 6 6 13 19 23 29 35 32 45 55 58 52 48 45 52 48 55 55 58 55 52 58 48 45 61 61 61 68 68 71 68 65 65 61
0 0 0 0 0 0 0 3 3 3 6 6 16 19 23 26 23 39 48 45 55 45 45 45 42 45 48 42 45 48 48 52 48 48 58 61 58 65 71 68 68 65 65 65
3 0 0 0 0 0 0 6 10 13 10 16 16 19 23 26 29 35 48 45 45 42 45 48 42 45 48 48 48 52 52 52 52 45 48 58 58 58 61 61 65 61 61 58
0 0 0 0 0 0 0 13 13 13 13 26 32 16 10 23 26 32 42 42 45 42 48 48 48 52 55 52 52 52 52 52 52 48 52 52 48 55 58 55 58 58 65 58
3 0 0 6 3 16 23 19 13 16 19 23 23 16 13 19 26 26 23 35 39 45 48 52 52 52 52 55 52 52 52 52 45 48 45 48 52 48 48 48 55 55 55 52
13 16 16 10 10 13 16 23 26 23 19 23 16 16 16 23 23 23 19 23 35 42 48 52 52 52 45 52 52 52 52 52 45 42 45 48 48 45 45 45 45 52 48 45
16 10 6 10 10 16 16 19 16 16 23 16 16 13 19 16 10 13 16 26 26 32 35 45 48 52 52 48 48 48 45 45 48 45 48 48 48 45 45 45 42 39 45 45
10 10 6 6 13 13 16 16 13 16 10 13 13 16 13 10 6 10 13 23 23 26 35 35 39 39 39 45 48 48 45 42 39 48 39 48 45 45 39 35 35 29 32 35
6 26 16 13 13 13 13 16 16 13 13 10 10 10 6 3 6 3 6 16 19 23 26 29 39 39 39 45 48 52 42 42 39 39 42 42 42 35 23 16 13 3 10 23
13 13 10 13 13 10 0 10 13 10 13 6 6 6 6 6 10 10 13 13 19 19 23 26 26 32 35 39 42 42 45 48 39 39 39 39 39 35 32 10 0 0 0 0
13 13 13 3 6 6 6 3 6 6 13 10 6 10 13 10 13 10 10 13 13 10 13 19 26 32 39 35 35 35 39 35 32 42 42 35 39 39 29 32 26 10 0 0
10 6 3 6 10 10 6 6 6 3 10 10 13 16 16 13 10 10 13 10 13 10 10 10 23 26 29 29 35 35 32 29 32 29 29 32 39 29 32 35 29 29 19 0
3 6 3 3 10 10 10 3 3 6 10 13 13 13 13 16 13 13 16 16 13 13 19 23 26 26 29 29 29 29 26 16 16 19 19 19 19 26 26 29 29 23 19 13
3 3 6 6 6 3 3 3 3 6 6 13 13 13 13 16 19 19 13 13 23 23 19 23 19 26 26 26 26 16 13 16 13 19 19 19 19 19 23 26 26 26 19 19
6 6 6 6 6 6 0 0 3 3 10 13 13 10 10 16 19 19 19 23 23 19 23 23 16 16 16 13 19 19 13 13 13 13 19 19 23 19 19 16 19 19 19 10
3 3 3 3 10 3 3 3 3 6 10 13 13 13 16 19 23 23 19 19 19 19 16 13 6 6 10 16 16 16 13 10 10 13 10 16 19 19 16 13 13 10 13 16
0 3 3 3 10 6 10 3 3 6 6 10 16 23 23 19 16 19 19 13 10 10 13 10 10 10 10 19 13 13 10 10 10 10 13 13 16 16 13 10 13 13 13 6
0 0 0 3 6 6 0 3 3 3 6 16 19 16 10 10 13 16 13 6 13 10 3 3 6 13 10 10 10 10 13 13 10 10 13 13 13 13 10 13 10 13 13 13
0 0 3 3 3 3 3 3 3 3 6 16 13 10 13 13 3 10 16 10 6 0 0 3 6 3 6 3 6 6 10 13 13 13 13 10 10 13 13 10 10 3 13 10
3 6 6 6 6 10 10 3 6 13 13 10 13 13 13 16 3 3 3 6 6 0 0 0 0 0 0 3 6 6 6 10 13 10 10 10 10 13 10 10 10 6 6 6
6 6 6 6 6 6 6 3 3 3 3 3 6 16 19 3 3 3 3 0 0 0 0 0 0 0 0 0 6 6 6 10 10 10 6 6 10 16 16 13 6 10 10 6
10 10 10 6 6 6 6 6 0 0 0 0 0 3 3 3 3 0 0 0 0 0 0 0 0 0 0 0 3 3 6 6 10 6 6 6 6 10 13 13 10 6 6 6
13 10 10 13 6 6 3 3 0 0 0 0 0 0 0 0 0 3 3 3 0 0 0 0 6 0 0 3 6 3 3 6 13 10 6 6 10 6 6 6 3 3 6 6
6 6 10 3 3 3 3 3 0 0 0 0 0 0 3 3 0 0 0 0 3 0 0 0 3 3 3 3 3 6 6 6 6 6 13 10 6 6 6 6 3 0 3 3